Location: Augustenthal
(51.7167°N, 10.2833°E)
Time: 03:05:53
(UTC+00:00)

Cosmos 2151 Rocket - Pass Details

Date: 18 May 2021
Orbit: 617 x 643 km, 82.5° (Epoch: 14 June)

Event Time Altitude Azimuth Distance (km) Brightness Sun altitude
Rises 22:25:31 0° 353° (N) 2,957 8.8 -17.7°
Reaches altitude 10° 22:27:53 10° 0° (N) 2,040 7.4 -17.8°
Maximum altitude 22:32:13 44° 73° (ENE) 881 4.3 -17.9°
Enters shadow 22:34:09 28° 128° (SE) 1,199 4.6 -18.0°
